Presure
244 236 236 280 248 296 289 315 305 308 298 288 270 266 261 258 243 250 241 254 260 187 208 154 233 147 222
245 338 373 395 491 491 492 497 500 395 360 356 326 296 276 275 272 251 258 237 242 168 227 159 153 160 176
494 398 470 457 449 448 449 452 452 459 469 482 518 457 349 313 292 281 278 262 222 149 261 228 233 147 160
445 440 436 426 428 429 432 435 435 435 438 448 461 511 493 475 360 302 217 269 263 248 276 265 214 142 192
417 421 416 419 433 446 449 459 459 459 435 431 439 453 471 480 465 459 326 268 286 268 237 266 243 229 171
407 405 423 429 449 447 491 483 492 454 439 431 427 435 450 494 475 459 469 372 316 302 287 266 198 253 231
405 415 417 437 451 504 508 488 477 456 432 418 409 430 432 473 488 483 459 467 387 331 306 279 202 269 236
410 416 434 443 463 511 480 468 458 439 416 413 411 423 444 473 468 478 494 460 466 374 253 303 240 270 261
425 441 449 452 481 484 464 451 443 423 409 410 415 429 460 465 466 508 488 490 460 464 357 262 298 269 273
446 449 496 456 497 466 447 437 433 422 399 401 421 451 463 458 462 488 495 495 481 463 464 362 324 291 149
452 458 445 515 477 452 434 426 426 421 406 416 436 456 460 457 442 472 476 483 483 469 460 463 387 321 276
445 453 439 491 459 448 433 423 416 417 409 428 440 423 449 451 455 446 454 471 470 466 452 451 462 356 314
452 451 434 472 452 440 426 414 413 412 417 435 413 407 408 438 438 446 443 447 465 452 450 445 451 473 372
466 455 435 427 424 433 425 421 426 421 440 413 395 394 393 403 447 434 445 437 440 451 439 444 449 451 454
464 449 417 424 415 430 437 431 426 447 407 386 380 382 386 407 404 429 429 444 439 446 446 431 449 444 443
455 451 408 419 412 402 396 390 421 380 383 383 399 417 442 433 431 432 440 438 442 448 451 440 443 442 435
445 450 409 407 416 405 396 394 393 381 384 384 406 414 471 488 443 434 435 437 445 446 437 448 436 438 430
Wind_Speed
132 131 133 138 134 139 135 134 134 134 131 129 126 127 125 122 116 115 112 108 104 89 100 67 104 68 97
131 136 132 128 79 76 71 68 68 126 134 135 134 133 131 130 128 122 122 116 111 83 113 79 71 69 70
68 97 66 68 72 73 73 69 69 65 63 64 61 96 137 140 137 134 131 126 115 80 115 117 117 74 72
72 70 72 72 74 74 73 72 70 68 64 62 63 59 66 76 138 140 110 132 128 122 122 120 112 76 91
72 71 71 72 72 70 72 68 63 60 62 60 60 58 59 65 75 86 145 131 138 131 112 124 122 120 86
71 73 70 71 68 68 63 61 54 51 57 54 54 55 55 52 65 76 81 136 145 141 136 128 95 134 124
73 71 71 70 67 58 47 49 46 42 51 53 53 51 53 46 50 64 77 81 126 142 140 136 104 131 133
73 72 72 67 60 45 45 43 40 38 49 49 49 48 47 44 47 52 58 77 82 126 114 142 124 135 138
69 69 66 59 47 41 40 41 37 37 46 48 43 45 44 40 40 40 49 55 76 82 135 118 145 138 137
58 59 53 48 36 37 38 39 37 35 44 46 42 44 39 37 37 35 39 44 56 72 79 135 143 146 84
54 50 45 31 30 32 35 37 36 36 38 42 40 38 36 33 36 33 36 40 46 60 72 78 126 144 141
51 46 40 28 31 31 32 32 35 34 33 37 36 35 34 34 30 34 33 37 44 51 65 73 75 130 146
48 42 37 30 27 28 29 31 33 32 31 33 34 33 33 34 32 31 33 37 40 50 58 66 70 70 133
44 36 34 32 30 29 30 31 29 28 29 31 32 32 31 31 34 31 33 38 43 46 54 58 63 69 76
41 33 33 30 29 28 28 28 26 27 27 30 31 31 31 32 33 31 35 36 42 45 47 56 57 65 73
39 32 31 28 27 26 23 21 23 21 24 27 28 30 35 33 31 33 33 37 41 44 44 50 55 62 70
39 32 29 27 26 24 21 19 19 20 21 22 24 26 33 37 35 37 39 39 40 43 47 46 55 61 67
Wind_Direction
292 289 288 285 284 279 278 273 270 267 263 260 258 258 257 254 252 251 249 246 236 233 233 234 233 243 233
293 290 285 283 285 282 280 279 276 264 262 257 254 251 253 252 249 247 246 245 239 236 234 239 233 232 240
295 292 289 287 284 283 281 278 275 272 268 265 261 253 246 245 244 244 241 241 243 232 230 232 229 238 231
293 291 288 288 286 284 280 277 273 270 268 266 263 260 252 245 241 239 240 238 237 238 235 228 234 234 236
293 294 293 292 291 286 283 280 275 271 266 264 263 262 255 247 242 238 235 236 233 233 232 227 223 229 226
297 296 298 298 297 292 285 282 274 268 264 261 263 260 258 253 242 238 235 231 231 228 224 227 230 222 228
300 301 301 301 298 293 282 276 273 266 261 260 259 261 257 257 251 241 235 233 227 228 223 223 229 222 226
301 302 301 301 297 284 279 276 271 263 262 261 262 263 263 259 250 246 242 233 232 224 225 221 222 221 219
301 300 300 298 291 279 277 274 269 264 265 266 263 265 265 260 252 251 240 235 231 231 221 224 219 220 221
303 302 301 296 278 276 275 274 271 263 265 267 269 271 263 258 253 247 242 236 230 229 229 220 221 218 231
311 308 301 284 278 272 271 274 271 268 265 271 271 263 259 249 248 243 238 235 231 229 228 229 222 220 219
315 310 304 284 278 271 270 269 271 272 271 273 266 256 254 250 242 243 237 235 231 229 228 227 227 219 218
316 311 307 293 285 278 273 271 270 274 273 268 259 255 249 246 242 236 233 230 232 227 228 226 226 223 219
323 313 309 307 299 280 278 277 278 276 270 262 260 256 248 242 245 236 235 230 229 229 225 226 224 223 223
330 319 316 311 307 291 282 282 283 278 265 267 264 260 253 246 234 238 233 231 230 230 226 225 221 221 221
335 327 322 316 312 307 301 294 285 272 268 269 270 266 256 251 246 244 237 232 230 230 227 221 219 219 220
347 340 328 325 317 312 306 298 286 273 269 270 272 271 259 247 244 239 235 229 229 228 225 220 217 217 217